Whiteman AFB, MO

4:13 PM CST on November 11, 2019 (GMT -0600)
Whiteman Air Force Base

Weather History for KSZL - May, 2019

Change the Weather History Date:

Wednesday, May 8, 2019

  Actual Average Record
Temperature  
Mean Temperature 64 °F -  
Max Temperature 69 °F 72 °F 87 °F (2000)
Min Temperature 59 °F 52 °F 48 °F (2001)
Degree Days  
Heating Degree Days 1    
Growing Degree Days 14 (Base 50)    
Moisture  
Dew Point 62 °F    
Average Humidity 96    
Maximum Humidity 100    
Minimum Humidity 78    
Precipitation  
Precipitation 0.64 in - - ()
Sea Level Pressure  
Sea Level Pressure 29.73 in    
Wind  
Wind Speed 9 mph (SE)    
Max Wind Speed 16 mph    
Max Gust Speed 23 mph    
Visibility 9 miles    
Events Rain , Thunderstorm    
Averages and records for this station are not official NWS values.
T = Trace of Precipitation, MM = Missing Value Source: NWS Daily Summary

Daily Weather History Graph

Daily Weather History Graph

Search for Another Location

Airport or City:

Astronomy

May. 08, 2019 Rise Set
Actual Time 6:09 AM CDT 8:12 PM CDT
Civil Twilight 5:39 AM CDT 8:42 PM CDT
Nautical Twilight 5:04 AM CDT 9:18 PM CDT
Astronomical Twilight 4:25 AM CDT 9:57 PM CDT
Moon 9:07 AM CDT (5/8) No Moon Set
Length of Visible Light 15h 02m
Length of Day
14h 03m
Waxing Crescent, 16% of the Moon is Illuminated
May 8
Waxing Crescent
May 11
First Quarter
May 18
Full
May 26
Last Quarter
Jun 3
New

Hourly Weather History & Observations

Time (CDT) Temp. Dew Point Humidity Pressure Visibility Wind Dir Wind Speed Gust Speed Precip Events Conditions
12:03 AM 59.0 °F 59.0 °F 100% 29.93 in 7.0 mi SE 6.9 mph - N/A Rain , Thunderstorm Thunderstorms and Rain
12:08 AM 59.0 °F 59.0 °F 100% 29.93 in 4.0 mi SSE 4.6 mph - N/A Rain , Thunderstorm Light Thunderstorms and Rain
12:31 AM 59.0 °F 59.0 °F 100% 29.91 in 4.0 mi East 6.9 mph - N/A Rain Rain
12:58 AM 59.5 °F 59.5 °F 100% 29.89 in 4.0 mi East 9.2 mph - 0.19 in Rain Rain
1:15 AM 59.9 °F 59.9 °F 100% 29.87 in 4.0 mi East 10.4 mph - 0.17 in Rain , Thunderstorm Light Thunderstorms and Rain
1:38 AM 60.8 °F 60.8 °F 100% 29.86 in 10.0 mi East 9.2 mph - N/A   Overcast
1:55 AM 60.4 °F 60.4 °F 100% 29.85 in 10.0 mi ESE 6.9 mph - 0.09 in   Overcast
2:56 AM 61.0 °F 61.0 °F 100% 29.82 in 10.0 mi East 10.4 mph - N/A   Overcast
3:56 AM 61.7 °F 61.7 °F 100% 29.78 in 10.0 mi East 12.7 mph 20.7 mph N/A   Overcast
4:31 AM 60.8 °F 60.8 °F 100% 29.76 in 10.0 mi ESE 13.8 mph 20.7 mph N/A   Overcast
4:41 AM 60.8 °F 60.8 °F 100% 29.75 in 10.0 mi ESE 13.8 mph 20.7 mph N/A   Light Drizzle
4:57 AM 61.0 °F 61.0 °F 100% 29.74 in 10.0 mi East 13.8 mph 23.0 mph 0.00 in   Overcast
5:38 AM 60.8 °F 60.8 °F 100% 29.72 in 10.0 mi ESE 9.2 mph 20.7 mph N/A Rain Light Rain
5:57 AM 61.7 °F 61.7 °F 100% 29.71 in 10.0 mi East 12.7 mph - 0.00 in   Overcast
6:38 AM 62.6 °F 62.6 °F 100% 29.71 in 10.0 mi SE 13.8 mph 20.7 mph N/A Thunderstorm Overcast
6:43 AM 62.6 °F 62.6 °F 100% 29.71 in 10.0 mi SE 8.1 mph - N/A Rain , Thunderstorm Light Thunderstorms and Rain
6:58 AM 63.3 °F 63.3 °F 100% 29.72 in 5.0 mi Variable 4.6 mph - 0.00 in Rain , Thunderstorm Light Thunderstorms and Rain
7:12 AM 62.6 °F 62.6 °F 100% 29.72 in 3.0 mi SSW 4.6 mph - N/A Rain , Thunderstorm Thunderstorms and Rain
7:42 AM 64.4 °F 64.4 °F 100% 29.71 in 4.0 mi SSE 5.8 mph - N/A Rain , Thunderstorm Light Rain
7:59 AM 64.4 °F 64.4 °F 100% 29.71 in 6.0 mi South 6.9 mph - 0.19 in Rain Light Rain
8:57 AM 64.8 °F 64.8 °F 100% 29.69 in 10.0 mi South 12.7 mph - 0.09 in   Overcast
9:56 AM 64.0 °F 64.0 °F 100% 29.66 in 10.0 mi SSE 11.5 mph - N/A   Overcast
10:55 AM 64.0 °F 64.0 °F 100% 29.59 in 10.0 mi SSE 13.8 mph 21.9 mph 0.00 in   Light Drizzle
11:57 AM 65.8 °F 64.4 °F 95% 29.68 in 10.0 mi SW 16.1 mph - 0.00 in   Mostly Cloudy
12:56 PM 66.6 °F 63.1 °F 89% 29.65 in 10.0 mi SSW 16.1 mph - 0.00 in   Mostly Cloudy
1:56 PM 66.6 °F 63.1 °F 89% 29.67 in 10.0 mi South 15.0 mph - N/A   Mostly Cloudy
2:56 PM 69.1 °F 61.9 °F 78% 29.65 in 10.0 mi South 11.5 mph - N/A   Mostly Cloudy
3:55 PM 68.9 °F 63.1 °F 82% 29.64 in 10.0 mi South 11.5 mph - N/A   Mostly Cloudy
4:56 PM 69.1 °F 61.9 °F 78% 29.63 in 10.0 mi SSE 11.5 mph - N/A   Overcast
5:56 PM 68.4 °F 63.7 °F 85% 29.64 in 10.0 mi SSE 11.5 mph - N/A   Overcast
6:56 PM 68.2 °F 64.8 °F 89% 29.64 in 10.0 mi SSE 9.2 mph - N/A   Overcast
7:56 PM 66.9 °F 63.9 °F 90% 29.63 in 10.0 mi South 6.9 mph - N/A   Overcast
8:56 PM 64.9 °F 64.6 °F 99% 29.63 in 10.0 mi SSE 5.8 mph - N/A   Mostly Cloudy
9:56 PM 63.1 °F 63.1 °F 100% 29.64 in 10.0 mi South 6.9 mph - N/A   Mostly Cloudy
10:56 PM 63.1 °F 63.1 °F 100% 29.66 in 10.0 mi South 9.2 mph - N/A   Mostly Cloudy
11:56 PM 61.9 °F 61.9 °F 100% 29.66 in 10.0 mi SSW 8.1 mph - N/A   Mostly Cloudy